When you browse on this site, cookies collect data to enhance your experience and personalize the content and advertising you see.
Visit our Privacy Policy to learn more. By continuing to use the site, you agree to this use of cookies and data.
  • în România
  • Lista ţărilor
  • Pe 7 zile
  • Temperatura apei
  • Meteo pe hartă
  • Widget-uri
  • user-avatar
    Intrare

    Meteo pe oră la Manaus

    Astăzi, 15 Septembrie, Duminică

    Timp Temperatura Precipitaţii Vânt Presiune Umiditate
    00:00 +27°C° 0.4 mm 1 m/s 753 mmHg 81%
    01:00 +24°C° 0.4 mm 0 m/s 753 mmHg 85%
    02:00 +23°C° 0 mm 0 m/s 753 mmHg 89%
    03:00 +23°C° 0.6 mm 0 m/s 753 mmHg 91%
    04:00 +25°C° 0.6 mm 1 m/s 753 mmHg 92%
    05:00 +25°C° 0.6 mm 1 m/s 754 mmHg 93%
    06:00 +26°C° 0.1 mm 1 m/s 754 mmHg 88%
    07:00 +26°C° 0.1 mm 0 m/s 754 mmHg 83%
    08:00 +27°C° 0.1 mm 0 m/s 755 mmHg 79%
    09:00 +30°C° 0 mm 0 m/s 755 mmHg 65%
    10:00 +34°C° 0 mm 0 m/s 755 mmHg 52%
    11:00 +37°C° 0 mm 0 m/s 754 mmHg 39%
    12:00 +39°C° 0 mm 1 m/s 753 mmHg 39%
    13:00 +39°C° 0 mm 1 m/s 752 mmHg 40%
    14:00 +37°C° 0 mm 1 m/s 751 mmHg 40%
    15:00 +37°C° 0 mm 1 m/s 751 mmHg 42%
    16:00 +36°C° 0 mm 1 m/s 751 mmHg 44%
    17:00 +36°C° 0 mm 1 m/s 750 mmHg 46%
    18:00 +33°C° 0.1 mm 1 m/s 751 mmHg 53%
    19:00 +31°C° 0.1 mm 1 m/s 751 mmHg 61%
    20:00 +27°C° 0.1 mm 0 m/s 752 mmHg 69%
    21:00 +28°C° 0 mm 1 m/s 752 mmHg 72%
    22:00 +28°C° 0 mm 1 m/s 752 mmHg 74%
    23:00 +27°C° 0 mm 1 m/s 753 mmHg 77%

    Mâine, 16 Septembrie, Luni

    Timp Temperatura Precipitaţii Vânt Presiune Umiditate
    00:00 +27°C° 0 mm 1 m/s 752 mmHg 77%
    01:00 +27°C° 0 mm 1 m/s 752 mmHg 78%
    02:00 +27°C° 0 mm 1 m/s 751 mmHg 78%
    03:00 +27°C° 0 mm 1 m/s 752 mmHg 79%
    04:00 +26°C° 0 mm 1 m/s 752 mmHg 79%
    05:00 +26°C° 0 mm 1 m/s 752 mmHg 80%
    06:00 +28°C° 0 mm 1 m/s 753 mmHg 74%
    07:00 +30°C° 0 mm 1 m/s 753 mmHg 69%
    08:00 +31°C° 0 mm 1 m/s 754 mmHg 64%
    09:00 +34°C° 0 mm 1 m/s 754 mmHg 55%
    10:00 +37°C° 0 mm 1 m/s 754 mmHg 46%
    11:00 +38°C° 0 mm 0 m/s 754 mmHg 37%
    12:00 +40°C° 0.1 mm 1 m/s 753 mmHg 37%
    13:00 +40°C° 0.1 mm 1 m/s 752 mmHg 37%
    14:00 +40°C° 0.1 mm 1 m/s 751 mmHg 38%
    15:00 +39°C° 0.1 mm 1 m/s 751 mmHg 39%
    16:00 +37°C° 0.1 mm 1 m/s 750 mmHg 41%
    17:00 +37°C° 0.1 mm 1 m/s 750 mmHg 43%
    18:00 +33°C° 0.1 mm 0 m/s 750 mmHg 50%
    19:00 +30°C° 0.1 mm 0 m/s 751 mmHg 56%
    20:00 +28°C° 0.1 mm 0 m/s 751 mmHg 63%
    21:00 +28°C° 0 mm 0 m/s 751 mmHg 66%
    22:00 +29°C° 0 mm 1 m/s 752 mmHg 69%
    23:00 +28°C° 0 mm 1 m/s 752 mmHg 73%

    Poimâine, 17 Septembrie, Marţi

    Timp Temperatura Precipitaţii Vânt Presiune Umiditate
    00:00 +28°C° 0.2 mm 1 m/s 752 mmHg 76%
    01:00 +27°C° 0.2 mm 1 m/s 751 mmHg 79%
    02:00 +27°C° 0.2 mm 1 m/s 751 mmHg 82%
    03:00 +26°C° 0.4 mm 1 m/s 751 mmHg 86%
    04:00 +26°C° 0.4 mm 1 m/s 752 mmHg 89%
    05:00 +25°C° 0.4 mm 1 m/s 752 mmHg 93%
    06:00 +27°C° 0.1 mm 1 m/s 753 mmHg 88%
    07:00 +28°C° 0.1 mm 1 m/s 754 mmHg 83%
    08:00 +28°C° 0.1 mm 0 m/s 754 mmHg 78%
    09:00 +32°C° 0 mm 1 m/s 754 mmHg 67%
    10:00 +34°C° 0 mm 1 m/s 754 mmHg 57%
    11:00 +37°C° 0 mm 1 m/s 754 mmHg 47%
    12:00 +37°C° 0.1 mm 1 m/s 753 mmHg 45%
    13:00 +39°C° 0.1 mm 1 m/s 752 mmHg 43%
    14:00 +39°C° 0.1 mm 1 m/s 751 mmHg 41%
    15:00 +39°C° 0 mm 1 m/s 751 mmHg 42%
    16:00 +37°C° 0 mm 1 m/s 750 mmHg 44%
    17:00 +34°C° 0 mm 0 m/s 750 mmHg 46%
    18:00 +32°C° 0 mm 0 m/s 750 mmHg 52%
    19:00 +30°C° 0 mm 0 m/s 750 mmHg 58%
    20:00 +28°C° 0 mm 0 m/s 750 mmHg 64%
    21:00 +28°C° 0 mm 0 m/s 751 mmHg 65%
    22:00 +30°C° 0 mm 1 m/s 751 mmHg 66%
    23:00 +29°C° 0 mm 1 m/s 751 mmHg 67%

    18 Septembrie, Miercuri

    Timp Temperatura Precipitaţii Vânt Presiune Umiditate
    00:00 +29°C° 0 mm 1 m/s 751 mmHg 69%
    01:00 +29°C° 0 mm 1 m/s 750 mmHg 71%
    02:00 +28°C° 0 mm 1 m/s 750 mmHg 73%
    03:00 +28°C° 0 mm 1 m/s 750 mmHg 77%
    04:00 +27°C° 0 mm 1 m/s 751 mmHg 80%
    05:00 +27°C° 0 mm 1 m/s 751 mmHg 83%
    06:00 +28°C° 0.1 mm 1 m/s 751 mmHg 81%
    07:00 +29°C° 0.1 mm 2 m/s 752 mmHg 79%
    08:00 +30°C° 0.1 mm 2 m/s 753 mmHg 77%
    09:00 +32°C° 0 mm 2 m/s 753 mmHg 65%
    10:00 +36°C° 0 mm 2 m/s 752 mmHg 54%
    11:00 +39°C° 0 mm 2 m/s 752 mmHg 43%
    12:00 +39°C° 0 mm 1 m/s 751 mmHg 41%
    13:00 +39°C° 0 mm 1 m/s 751 mmHg 40%
    14:00 +40°C° 0 mm 1 m/s 750 mmHg 38%
    15:00 +39°C° 0.1 mm 1 m/s 749 mmHg 41%
    16:00 +37°C° 0.1 mm 1 m/s 749 mmHg 43%
    17:00 +37°C° 0.1 mm 1 m/s 749 mmHg 45%
    18:00 +34°C° 0.4 mm 1 m/s 749 mmHg 57%
    19:00 +31°C° 0.4 mm 2 m/s 750 mmHg 68%
    20:00 +29°C° 0.4 mm 3 m/s 750 mmHg 80%
    21:00 +28°C° 0.2 mm 2 m/s 750 mmHg 81%
    22:00 +28°C° 0.2 mm 2 m/s 751 mmHg 83%
    23:00 +27°C° 0.2 mm 1 m/s 751 mmHg 84%

    19 Septembrie, Joi

    Timp Temperatura Precipitaţii Vânt Presiune Umiditate
    00:00 +27°C° 0.1 mm 1 m/s 751 mmHg 86%
    01:00 +26°C° 0.1 mm 1 m/s 750 mmHg 89%
    02:00 +26°C° 0.1 mm 1 m/s 750 mmHg 92%
    03:00 +26°C° 0 mm 1 m/s 750 mmHg 92%
    04:00 +26°C° 0 mm 1 m/s 750 mmHg 93%
    05:00 +26°C° 0 mm 1 m/s 750 mmHg 94%
    06:00 +27°C° 0 mm 1 m/s 751 mmHg 88%
    07:00 +28°C° 0 mm 1 m/s 752 mmHg 82%
    08:00 +29°C° 0 mm 1 m/s 753 mmHg 76%
    09:00 +32°C° 0.1 mm 1 m/s 752 mmHg 65%
    10:00 +35°C° 0.1 mm 1 m/s 752 mmHg 53%
    11:00 +39°C° 0.1 mm 1 m/s 752 mmHg 41%
    12:00 +39°C° 0 mm 1 m/s 751 mmHg 41%
    13:00 +39°C° 0 mm 1 m/s 751 mmHg 40%
    14:00 +39°C° 0 mm 1 m/s 750 mmHg 40%
    15:00 +37°C° 0 mm 1 m/s 750 mmHg 43%
    16:00 +36°C° 0 mm 1 m/s 749 mmHg 46%
    17:00 +36°C° 0 mm 1 m/s 749 mmHg 49%
    18:00 +34°C° 0.1 mm 1 m/s 749 mmHg 54%
    19:00 +33°C° 0.1 mm 1 m/s 750 mmHg 60%
    20:00 +31°C° 0.1 mm 1 m/s 750 mmHg 65%
    21:00 +30°C° 0 mm 1 m/s 750 mmHg 68%
    22:00 +30°C° 0 mm 1 m/s 751 mmHg 71%
    23:00 +29°C° 0 mm 1 m/s 751 mmHg 73%

    20 Septembrie, Vineri

    Timp Temperatura Precipitaţii Vânt Presiune Umiditate
    00:00 +29°C° 0 mm 1 m/s 751 mmHg 75%
    01:00 +26°C° 0 mm 0 m/s 750 mmHg 76%
    02:00 +26°C° 0 mm 0 m/s 750 mmHg 77%
    03:00 +27°C° 0 mm 1 m/s 750 mmHg 78%
    04:00 +27°C° 0 mm 1 m/s 751 mmHg 79%
    05:00 +27°C° 0 mm 1 m/s 751 mmHg 80%
    06:00 +29°C° 0 mm 1 m/s 752 mmHg 74%
    07:00 +30°C° 0 mm 1 m/s 753 mmHg 68%
    08:00 +32°C° 0 mm 1 m/s 753 mmHg 61%
    09:00 +34°C° 0 mm 1 m/s 753 mmHg 53%
    10:00 +37°C° 0 mm 2 m/s 753 mmHg 45%
    11:00 +40°C° 0 mm 2 m/s 753 mmHg 37%
    12:00 +40°C° 0 mm 2 m/s 752 mmHg 34%
    13:00 +41°C° 0 mm 2 m/s 751 mmHg 30%
    14:00 +42°C° 0 mm 2 m/s 750 mmHg 27%
    15:00 +41°C° 0 mm 1 m/s 750 mmHg 28%
    16:00 +41°C° 0 mm 1 m/s 750 mmHg 30%
    17:00 +40°C° 0 mm 1 m/s 749 mmHg 31%
    18:00 +37°C° 0 mm 1 m/s 750 mmHg 35%
    19:00 +34°C° 0 mm 1 m/s 750 mmHg 38%
    20:00 +32°C° 0 mm 1 m/s 751 mmHg 42%
    21:00 +31°C° 0 mm 1 m/s 751 mmHg 44%
    22:00 +30°C° 0 mm 1 m/s 751 mmHg 46%
    23:00 +30°C° 0 mm 1 m/s 751 mmHg 48%
    Arată mai mult